Location: Ferchesar
(52.6477°N, 12.4298°E)
Time: 04:35:30
(UTC+01:00)

Vanguard 1 - Pass Details

Date: 13 December 2021
Orbit: 652 x 3830 km, 34.2° (Epoch: 21 January)

Event Time Altitude Azimuth Distance (km) Brightness Sun altitude
Rises 02:15:55 0° 268° (W) 7,439 - -51.4°
Reaches altitude 10° 02:21:10 10° 262° (W) 6,670 - -50.7°
Maximum altitude 02:40:44 38° 205° (SSW) 4,893 - -48.2°
Exits shadow 02:48:03 32° 174° (S) 5,012 13.3 -47.2°
Drops below altitude 10° 02:58:18 10° 146° (SE) 5,998 14.1 -45.8°
Sets 03:02:45 0° 139° (SE) 6,649 14.5 -45.2°
